Location: Newark
(55.4390°N, 25.0170°E)
Time: 18:49:42
(UTC+00:00)

Envisat - Pass Details

Date: 06 March 2021
Orbit: 764 x 766 km, 98.1° (Epoch: 17 April)

Event Time Altitude Azimuth Distance (km) Brightness Sun altitude
Rises 03:04:16 0° 22° (NNE) 3,248 6.8 -16.8°
Reaches altitude 10° 03:06:59 10° 35° (NE) 2,317 6.2 -16.5°
Maximum altitude 03:11:11 25° 91° (E) 1,509 5.4 -15.9°
Drops below altitude 10° 03:15:21 10° 146° (SE) 2,301 5.7 -15.3°
Sets 03:18:01 0° 159° (SSE) 3,222 6.3 -14.9°
